Location: Newark
(52.3500°N, 175.9667°E)
Time: 23:50:38
(UTC+00:00)

Vanguard 1 - Pass Details

Date: 23 April 2021
Orbit: 649 x 3834 km, 34.2° (Epoch: 04 May)

Event Time Altitude Azimuth Distance (km) Brightness Sun altitude
Rises 06:39:49 0° 271° (W) 6,927 16.5 6.2°
Reaches altitude 10° 06:44:45 10° 263° (W) 6,261 15.8 5.4°
Maximum altitude 07:02:00 33° 210° (SSW) 5,209 13.9 2.9°
Drops below altitude 10° 07:20:18 10° 156° (SSE) 6,576 13.9 0.3°
Sets 07:25:45 0° 148° (SSE) 7,296 14.0 -0.5°
